Time,TemperatureF,DewpointF,PressureIn,WindDirection,WindDirectionDegrees,WindSpeedMPH,WindSpeedGustMPH,Humidity,HourlyPrecipIn,Conditions,Clouds,dailyrainin,SoftwareType,DateUTC
2012-09-22 07:19:00,35.8,28.3,30.19,SE,135,0.0,0.0,74,0.00,,---,0.00,VWS V14.01,2012-09-22 13:19:00,
2012-09-22 07:21:00,35.9,28.4,30.20,SE,129,0.0,0.0,74,0.00,,---,0.00,VWS V14.01,2012-09-22 13:21:00,
2012-09-22 07:25:00,36.0,28.5,30.20,SE,130,0.0,0.0,74,0.00,,---,0.00,VWS V14.01,2012-09-22 13:25:00,
2012-09-22 07:30:00,36.2,28.7,30.19,SE,130,0.0,0.0,74,0.00,,---,0.00,VWS V14.01,2012-09-22 13:30:00,
2012-09-22 07:36:00,36.5,29.0,30.19,SE,130,0.0,0.0,74,0.00,,---,0.00,VWS V14.01,2012-09-22 13:36:00,
2012-09-22 07:41:00,36.6,28.8,30.18,SE,129,0.0,0.0,73,0.00,,---,0.00,VWS V14.01,2012-09-22 13:41:00,
2012-09-22 07:46:00,36.8,29.0,30.18,SE,130,0.0,0.0,73,0.00,,---,0.00,VWS V14.01,2012-09-22 13:46:00,
2012-09-22 07:51:00,37.3,29.5,30.17,SE,129,0.0,0.0,73,0.00,,---,0.00,VWS V14.01,2012-09-22 13:51:00,
2012-09-22 07:56:00,37.9,29.7,30.18,SE,130,0.0,0.0,72,0.00,,---,0.00,VWS V14.01,2012-09-22 13:56:00,
2012-09-22 08:01:00,38.3,29.7,30.18,SE,129,0.0,0.0,71,0.00,,---,0.00,VWS V14.01,2012-09-22 14:01:00,
2012-09-22 08:06:00,38.8,30.2,30.18,SE,130,0.0,0.0,71,0.00,,---,0.00,VWS V14.01,2012-09-22 14:06:00,
2012-09-22 08:11:00,39.5,30.5,30.18,SE,130,1.0,1.0,70,0.00,,---,0.00,VWS V14.01,2012-09-22 14:11:00,
2012-09-22 08:16:00,40.3,31.0,30.17,SE,130,0.0,0.0,69,0.00,,---,0.00,VWS V14.01,2012-09-22 14:16:00,
2012-09-22 08:21:00,41.2,31.8,30.16,SE,129,0.0,0.0,69,0.00,,---,0.00,VWS V14.01,2012-09-22 14:21:00,
2012-09-22 08:26:00,42.1,32.0,30.15,SE,130,0.0,0.0,67,0.00,,---,0.00,VWS V14.01,2012-09-22 14:26:00,
2012-09-22 08:31:00,43.1,32.5,30.15,SE,129,0.0,0.0,66,0.00,,---,0.00,VWS V14.01,2012-09-22 14:31:00,
2012-09-22 08:36:00,44.2,32.4,30.13,SE,129,0.0,0.0,63,0.00,,---,0.00,VWS V14.01,2012-09-22 14:36:00,
2012-09-22 08:41:00,45.5,32.4,30.13,SE,129,0.0,0.0,60,0.00,,---,0.00,VWS V14.01,2012-09-22 14:41:00,
2012-09-22 08:46:00,46.6,33.0,30.11,SE,130,0.0,0.0,59,0.00,,---,0.00,VWS V14.01,2012-09-22 14:46:00,
2012-09-22 08:51:00,47.6,33.1,30.11,SE,129,0.0,0.0,57,0.00,,---,0.00,VWS V14.01,2012-09-22 14:51:00,
2012-09-22 08:56:00,48.4,33.4,30.09,SE,130,0.0,0.0,56,0.00,,---,0.00,VWS V14.01,2012-09-22 14:56:00,
2012-09-22 09:01:00,49.2,33.3,30.09,SE,130,0.0,0.0,54,0.00,,---,0.00,VWS V14.01,2012-09-22 15:01:00,
2012-09-22 09:06:00,50.2,33.7,30.14,SE,129,0.0,0.0,53,0.00,,---,0.00,VWS V14.01,2012-09-22 15:06:00,
2012-09-22 09:11:00,51.5,34.0,30.13,SE,130,0.0,0.0,51,0.00,,---,0.00,VWS V14.01,2012-09-22 15:11:00,
2012-09-22 09:16:00,52.8,34.7,30.11,SE,129,0.0,0.0,50,0.00,,---,0.00,VWS V14.01,2012-09-22 15:16:00,
2012-09-22 09:21:00,54.1,33.8,30.11,SE,130,0.0,1.0,46,0.00,,---,0.00,VWS V14.01,2012-09-22 15:21:00,
2012-09-22 09:26:00,55.4,32.7,30.10,SE,130,0.0,0.0,42,0.00,,---,0.00,VWS V14.01,2012-09-22 15:26:00,
2012-09-22 09:31:00,55.7,32.4,30.10,SE,129,0.0,1.0,41,0.00,,---,0.00,VWS V14.01,2012-09-22 15:31:00,
2012-09-22 09:37:00,55.8,32.5,30.10,SE,130,1.0,2.0,41,0.00,,---,0.00,VWS V14.01,2012-09-22 15:37:00,
2012-09-22 09:42:00,55.8,32.5,30.10,SE,130,0.0,1.0,41,0.00,,---,0.00,VWS V14.01,2012-09-22 15:42:00,
2012-09-22 09:47:00,56.2,32.2,30.10,SE,130,2.0,4.0,40,0.00,,---,0.00,VWS V14.01,2012-09-22 15:47:00,
2012-09-22 09:52:00,56.4,33.0,30.09,South,188,0.0,6.0,41,0.00,,---,0.00,VWS V14.01,2012-09-22 15:52:00,
2012-09-22 09:57:00,56.7,32.7,30.08,South,190,0.0,5.0,40,0.00,,---,0.00,VWS V14.01,2012-09-22 15:57:00,
2012-09-22 10:02:00,57.1,33.0,30.07,South,190,0.0,2.0,40,0.00,,---,0.00,VWS V14.01,2012-09-22 16:02:00,
2012-09-22 10:07:00,57.4,33.9,30.12,South,190,2.0,4.0,41,0.00,,---,0.00,VWS V14.01,2012-09-22 16:07:00,
2012-09-22 10:12:00,57.6,33.5,30.10,SSW,192,0.0,5.0,40,0.00,,---,0.00,VWS V14.01,2012-09-22 16:12:00,
2012-09-22 10:17:00,58.1,33.3,30.10,SSW,192,2.0,6.0,39,0.00,,---,0.00,VWS V14.01,2012-09-22 16:17:00,
2012-09-22 10:22:00,58.4,33.6,30.10,SSW,192,0.0,2.0,39,0.00,,---,0.00,VWS V14.01,2012-09-22 16:22:00,
2012-09-22 10:27:00,59.0,34.1,30.10,SSW,192,3.0,3.0,39,0.00,,---,0.00,VWS V14.01,2012-09-22 16:27:00,
2012-09-22 10:32:00,59.7,34.1,30.09,SSW,192,1.0,5.0,38,0.00,,---,0.00,VWS V14.01,2012-09-22 16:32:00,
2012-09-22 10:37:00,60.3,33.9,30.08,SSW,193,1.0,4.0,37,0.00,,---,0.00,VWS V14.01,2012-09-22 16:37:00,
2012-09-22 10:42:00,60.4,34.0,30.08,SSW,192,1.0,2.0,37,0.00,,---,0.00,VWS V14.01,2012-09-22 16:42:00,
2012-09-22 10:47:00,60.6,34.2,30.08,SSW,207,1.0,6.0,37,0.00,,---,0.00,VWS V14.01,2012-09-22 16:47:00,
2012-09-22 10:52:00,61.8,34.6,30.07,SSW,207,4.0,6.0,36,0.00,,---,0.00,VWS V14.01,2012-09-22 16:52:00,
2012-09-22 10:57:00,62.2,34.9,30.06,SSW,210,4.0,7.0,36,0.00,,---,0.00,VWS V14.01,2012-09-22 16:57:00,
2012-09-22 11:02:00,62.0,34.1,30.06,SSW,210,2.0,5.0,35,0.00,,---,0.00,VWS V14.01,2012-09-22 17:02:00,
2012-09-22 11:07:00,62.3,34.3,30.07,SSW,211,1.0,7.0,35,0.00,,---,0.00,VWS V14.01,2012-09-22 17:07:00,
2012-09-22 11:12:00,62.8,34.8,30.06,SSW,203,0.0,5.0,35,0.00,,---,0.00,VWS V14.01,2012-09-22 17:12:00,
2012-09-22 11:17:00,63.2,34.4,30.05,SSW,204,0.0,6.0,34,0.00,,---,0.00,VWS V14.01,2012-09-22 17:17:00,
2012-09-22 11:22:00,63.6,34.7,30.05,SSW,203,0.0,2.0,34,0.00,,---,0.00,VWS V14.01,2012-09-22 17:22:00,
2012-09-22 11:27:00,64.2,34.5,30.05,SSW,209,2.0,6.0,33,0.00,,---,0.00,VWS V14.01,2012-09-22 17:27:00,
2012-09-22 11:32:00,65.1,34.5,30.03,SSW,210,5.0,7.0,32,0.00,,---,0.00,VWS V14.01,2012-09-22 17:32:00,
2012-09-22 11:37:00,65.4,34.8,30.02,SSW,210,0.0,2.0,32,0.00,,---,0.00,VWS V14.01,2012-09-22 17:37:00,
2012-09-22 11:42:00,65.7,34.3,30.03,SSW,211,4.0,6.0,31,0.00,,---,0.00,VWS V14.01,2012-09-22 17:42:00,
2012-09-22 11:47:00,65.2,34.6,30.02,SSW,211,1.0,4.0,32,0.00,,---,0.00,VWS V14.01,2012-09-22 17:47:00,
2012-09-22 11:52:00,65.8,34.3,30.02,SSW,211,0.0,1.0,31,0.00,,---,0.00,VWS V14.01,2012-09-22 17:52:00,
2012-09-22 11:57:00,66.8,35.2,30.00,SSW,211,0.0,2.0,31,0.00,,---,0.00,VWS V14.01,2012-09-22 17:57:00,
2012-09-22 12:02:00,67.6,35.1,30.00,SSW,211,2.0,5.0,30,0.00,,---,0.00,VWS V14.01,2012-09-22 18:02:00,
2012-09-22 12:07:00,67.9,35.3,30.02,SSW,210,0.0,2.0,30,0.00,,---,0.00,VWS V14.01,2012-09-22 18:07:00,
2012-09-22 12:12:00,67.7,34.3,30.01,SSW,210,0.0,2.0,29,0.00,,---,0.00,VWS V14.01,2012-09-22 18:12:00,
2012-09-22 12:17:00,68.2,34.8,30.01,SSW,210,0.0,2.0,29,0.00,,---,0.00,VWS V14.01,2012-09-22 18:17:00,
2012-09-22 12:22:00,68.6,35.1,30.00,SSW,213,2.0,6.0,29,0.00,,---,0.00,VWS V14.01,2012-09-22 18:22:00,
2012-09-22 12:27:00,68.6,35.1,29.99,SSW,213,0.0,5.0,29,0.00,,---,0.00,VWS V14.01,2012-09-22 18:27:00,
2012-09-22 12:32:00,68.8,35.3,29.99,SSW,213,0.0,5.0,29,0.00,,---,0.00,VWS V14.01,2012-09-22 18:32:00,
2012-09-22 12:37:00,68.9,34.5,29.99,SSW,213,4.0,5.0,28,0.00,,---,0.00,VWS V14.01,2012-09-22 18:37:00,
2012-09-22 12:42:00,68.4,34.0,29.99,SSW,213,0.0,5.0,28,0.00,,---,0.00,VWS V14.01,2012-09-22 18:42:00,
2012-09-22 12:47:00,69.2,36.5,29.99,SSW,213,0.0,1.0,30,0.00,,---,0.00,VWS V14.01,2012-09-22 18:47:00,
2012-09-22 12:52:00,70.9,35.3,29.96,SSW,213,0.0,2.0,27,0.00,,---,0.00,VWS V14.01,2012-09-22 18:52:00,
2012-09-22 12:57:00,71.7,36.0,29.97,SSW,213,4.0,6.0,27,0.00,,---,0.00,VWS V14.01,2012-09-22 18:57:00,
2012-09-22 13:02:00,71.4,34.8,29.96,SSW,213,1.0,5.0,26,0.00,,---,0.00,VWS V14.01,2012-09-22 19:02:00,
2012-09-22 13:07:00,71.6,34.0,29.98,SSW,213,0.0,2.0,25,0.00,,---,0.00,VWS V14.01,2012-09-22 19:07:00,
2012-09-22 13:12:00,72.7,35.9,29.97,SSW,213,2.0,2.0,26,0.00,,---,0.00,VWS V14.01,2012-09-22 19:12:00,
2012-09-22 13:17:00,72.9,35.0,29.96,SSW,213,0.0,4.0,25,0.00,,---,0.00,VWS V14.01,2012-09-22 19:17:00,
2012-09-22 13:22:00,72.7,34.9,29.95,SW,223,7.0,9.0,25,0.00,,---,0.00,VWS V14.01,2012-09-22 19:22:00,
2012-09-22 13:27:00,72.1,34.4,29.97,SW,223,2.0,5.0,25,0.00,,---,0.00,VWS V14.01,2012-09-22 19:27:00,
2012-09-22 13:32:00,72.0,33.3,29.97,SW,223,2.0,7.0,24,0.00,,---,0.00,VWS V14.01,2012-09-22 19:32:00,
2012-09-22 13:37:00,72.6,33.8,29.94,SW,225,5.0,5.0,24,0.00,,---,0.00,VWS V14.01,2012-09-22 19:37:00,
2012-09-22 13:42:00,73.1,30.9,29.95,SW,232,5.0,9.0,21,0.00,,---,0.00,VWS V14.01,2012-09-22 19:42:00,
2012-09-22 13:47:00,72.9,30.7,29.94,SW,234,0.0,9.0,21,0.00,,---,0.00,VWS V14.01,2012-09-22 19:47:00,
2012-09-22 13:52:00,73.6,31.3,29.94,SW,234,5.0,10.0,21,0.00,,---,0.00,VWS V14.01,2012-09-22 19:52:00,
2012-09-22 13:57:00,74.3,31.9,29.93,SW,234,5.0,6.0,21,0.00,,---,0.00,VWS V14.01,2012-09-22 19:57:00,
2012-09-22 14:02:00,74.1,31.7,29.93,SW,234,0.0,8.0,21,0.00,,---,0.00,VWS V14.01,2012-09-22 20:02:00,
2012-09-22 14:07:00,74.6,29.7,29.95,SW,236,7.0,11.0,19,0.00,,---,0.00,VWS V14.01,2012-09-22 20:07:00,
2012-09-22 14:12:00,74.5,30.8,29.95,SW,232,0.0,12.0,20,0.00,,---,0.00,VWS V14.01,2012-09-22 20:12:00,
2012-09-22 14:17:00,75.1,28.7,29.95,SW,228,0.0,12.0,18,0.00,,---,0.00,VWS V14.01,2012-09-22 20:17:00,
2012-09-22 14:22:00,75.0,28.7,29.95,West,261,4.0,14.0,18,0.00,,---,0.00,VWS V14.01,2012-09-22 20:22:00,
2012-09-22 14:27:00,74.9,27.2,29.95,SW,225,8.0,15.0,17,0.00,,---,0.00,VWS V14.01,2012-09-22 20:27:00,
2012-09-22 14:32:00,74.7,28.4,29.96,SW,226,3.0,15.0,18,0.00,,---,0.00,VWS V14.01,2012-09-22 20:32:00,
2012-09-22 14:37:00,74.7,28.4,29.95,WSW,238,10.0,19.0,18,0.00,,---,0.00,VWS V14.01,2012-09-22 20:37:00,
2012-09-22 14:42:00,74.9,27.2,29.95,West,266,9.0,12.0,17,0.00,,---,0.00,VWS V14.01,2012-09-22 20:42:00,
2012-09-22 14:47:00,75.4,27.6,29.95,SSW,192,10.0,14.0,17,0.00,,---,0.00,VWS V14.01,2012-09-22 20:47:00,
2012-09-22 14:52:00,75.2,27.4,29.95,SW,225,6.0,16.0,17,0.00,,---,0.00,VWS V14.01,2012-09-22 20:52:00,
2012-09-22 14:57:00,75.2,27.4,29.95,West,263,15.0,15.0,17,0.00,,---,0.00,VWS V14.01,2012-09-22 20:57:00,
2012-09-22 15:02:00,75.2,27.4,29.95,SW,219,5.0,14.0,17,0.00,,---,0.00,VWS V14.01,2012-09-22 21:02:00,
2012-09-22 15:07:00,75.1,27.4,29.96,SSW,198,7.0,11.0,17,0.00,,---,0.00,VWS V14.01,2012-09-22 21:07:00,
2012-09-22 15:12:00,75.3,27.5,29.96,SW,217,10.0,14.0,17,0.00,,---,0.00,VWS V14.01,2012-09-22 21:12:00,
2012-09-22 15:18:00,75.2,27.4,29.96,SW,230,8.0,18.0,17,0.00,,---,0.00,VWS V14.01,2012-09-22 21:18:00,
2012-09-22 15:23:00,75.4,27.6,29.93,WSW,243,7.0,12.0,17,0.00,,---,0.00,VWS V14.01,2012-09-22 21:23:00,
2012-09-22 15:28:00,75.6,27.8,29.93,WSW,244,14.0,18.0,17,0.00,,---,0.00,VWS V14.01,2012-09-22 21:28:00,
2012-09-22 15:33:00,75.4,27.6,29.95,SW,229,4.0,11.0,17,0.00,,---,0.00,VWS V14.01,2012-09-22 21:33:00,
2012-09-22 15:38:00,75.4,27.6,29.95,SSW,211,9.0,14.0,17,0.00,,---,0.00,VWS V14.01,2012-09-22 21:38:00,
2012-09-22 15:43:00,75.6,29.1,29.92,SSW,192,9.0,13.0,18,0.00,,---,0.00,VWS V14.01,2012-09-22 21:43:00,
2012-09-22 15:48:00,75.6,27.8,29.93,SW,230,11.0,20.0,17,0.00,,---,0.00,VWS V14.01,2012-09-22 21:48:00,
2012-09-22 15:53:00,75.3,27.5,29.94,SSW,200,0.0,12.0,17,0.00,,---,0.00,VWS V14.01,2012-09-22 21:53:00,
2012-09-22 15:58:00,76.0,28.1,29.92,SW,222,8.0,13.0,17,0.00,,---,0.00,VWS V14.01,2012-09-22 21:58:00,
2012-09-22 16:03:00,75.9,28.0,29.92,South,180,11.0,16.0,17,0.00,,---,0.00,VWS V14.01,2012-09-22 22:03:00,
2012-09-22 16:08:00,75.5,27.7,29.94,SW,232,2.0,13.0,17,0.00,,---,0.00,VWS V14.01,2012-09-22 22:08:00,
2012-09-22 16:13:00,75.6,27.8,29.94,SW,233,1.0,13.0,17,0.00,,---,0.00,VWS V14.01,2012-09-22 22:13:00,
2012-09-22 16:18:00,76.1,28.2,29.94,WSW,247,6.0,8.0,17,0.00,,---,0.00,VWS V14.01,2012-09-22 22:18:00,
2012-09-22 16:23:00,76.3,28.3,29.94,WSW,238,1.0,4.0,17,0.00,,---,0.00,VWS V14.01,2012-09-22 22:23:00,
2012-09-22 16:28:00,76.7,28.6,29.93,WSW,238,0.0,9.0,17,0.00,,---,0.00,VWS V14.01,2012-09-22 22:28:00,
2012-09-22 16:33:00,76.6,28.6,29.93,SW,232,4.0,16.0,17,0.00,,---,0.00,VWS V14.01,2012-09-22 22:33:00,
2012-09-22 16:38:00,75.8,27.9,29.93,WSW,244,8.0,14.0,17,0.00,,---,0.00,VWS V14.01,2012-09-22 22:38:00,
2012-09-22 16:43:00,75.5,27.7,29.93,WSW,237,0.0,13.0,17,0.00,,---,0.00,VWS V14.01,2012-09-22 22:43:00,
2012-09-22 16:48:00,76.0,28.1,29.93,WSW,242,6.0,8.0,17,0.00,,---,0.00,VWS V14.01,2012-09-22 22:48:00,
2012-09-22 16:53:00,76.2,28.2,29.93,SSW,211,11.0,11.0,17,0.00,,---,0.00,VWS V14.01,2012-09-22 22:53:00,
2012-09-22 16:58:00,75.5,27.7,29.93,WSW,246,1.0,13.0,17,0.00,,---,0.00,VWS V14.01,2012-09-22 22:58:00,
2012-09-22 17:03:00,75.6,29.1,29.93,WSW,238,8.0,13.0,18,0.00,,---,0.00,VWS V14.01,2012-09-22 23:03:00,
2012-09-22 17:08:00,75.7,29.2,29.93,WSW,253,8.0,12.0,18,0.00,,---,0.00,VWS V14.01,2012-09-22 23:08:00,
2012-09-22 17:13:00,75.6,27.8,29.93,SW,229,6.0,13.0,17,0.00,,---,0.00,VWS V14.01,2012-09-22 23:13:00,
2012-09-22 17:18:00,75.8,29.3,29.92,WSW,238,6.0,7.0,18,0.00,,---,0.00,VWS V14.01,2012-09-22 23:18:00,
2012-09-22 17:23:00,76.0,28.1,29.92,WSW,242,4.0,7.0,17,0.00,,---,0.00,VWS V14.01,2012-09-22 23:23:00,
2012-09-22 17:28:00,75.8,29.3,29.93,WSW,247,3.0,9.0,18,0.00,,---,0.00,VWS V14.01,2012-09-22 23:28:00,
2012-09-22 17:33:00,76.0,29.5,29.92,WSW,247,1.0,5.0,18,0.00,,---,0.00,VWS V14.01,2012-09-22 23:33:00,
2012-09-22 17:38:00,76.0,28.1,29.92,WSW,248,5.0,9.0,17,0.00,,---,0.00,VWS V14.01,2012-09-22 23:38:00,
2012-09-22 17:43:00,75.4,27.6,29.92,WSW,237,1.0,8.0,17,0.00,,---,0.00,VWS V14.01,2012-09-22 23:43:00,
2012-09-22 17:48:00,74.8,28.5,29.93,SSW,195,4.0,10.0,18,0.00,,---,0.00,VWS V14.01,2012-09-22 23:48:00,
2012-09-22 17:53:00,74.1,29.2,29.94,SSW,196,1.0,8.0,19,0.00,,---,0.00,VWS V14.01,2012-09-22 23:53:00,
2012-09-22 17:58:00,73.9,29.1,29.94,SSW,196,1.0,4.0,19,0.00,,---,0.00,VWS V14.01,2012-09-22 23:58:00,
2012-09-22 18:03:00,73.8,29.0,29.94,SSW,195,0.0,5.0,19,0.00,,---,0.00,VWS V14.01,2012-09-23 00:03:00,
2012-09-22 18:08:00,73.6,32.5,29.94,SSW,197,8.0,13.0,22,0.00,,---,0.00,VWS V14.01,2012-09-23 00:08:00,
2012-09-22 18:13:00,71.8,36.0,29.96,South,191,7.0,12.0,27,0.00,,---,0.00,VWS V14.01,2012-09-23 00:13:00,
2012-09-22 18:18:00,70.0,36.3,29.97,South,178,6.0,14.0,29,0.00,,---,0.00,VWS V14.01,2012-09-23 00:18:00,
2012-09-22 18:23:00,69.2,35.6,29.98,South,190,2.0,11.0,29,0.00,,---,0.00,VWS V14.01,2012-09-23 00:23:00,
2012-09-22 18:28:00,68.6,36.0,29.99,SSW,196,1.0,9.0,30,0.00,,---,0.00,VWS V14.01,2012-09-23 00:28:00,
2012-09-22 18:33:00,68.0,35.4,29.99,South,187,0.0,8.0,30,0.00,,---,0.00,VWS V14.01,2012-09-23 00:33:00,
2012-09-22 18:38:00,67.6,35.9,29.99,South,191,4.0,10.0,31,0.00,,---,0.00,VWS V14.01,2012-09-23 00:38:00,
2012-09-22 18:43:00,67.0,36.2,30.01,South,190,2.0,8.0,32,0.00,,---,0.00,VWS V14.01,2012-09-23 00:43:00,
2012-09-22 18:48:00,66.4,35.7,30.00,South,190,4.0,8.0,32,0.00,,---,0.00,VWS V14.01,2012-09-23 00:48:00,
2012-09-22 18:53:00,65.8,35.9,30.01,SSW,196,2.0,11.0,33,0.00,,---,0.00,VWS V14.01,2012-09-23 00:53:00,
2012-09-22 18:58:00,65.2,35.4,30.03,SSW,196,0.0,0.0,33,0.00,,---,0.00,VWS V14.01,2012-09-23 00:58:00,
2012-09-22 19:03:00,64.8,35.8,30.02,SSW,199,0.0,0.0,34,0.00,,---,0.00,VWS V14.01,2012-09-23 01:03:00,
2012-09-22 19:08:00,64.3,35.4,30.02,South,180,0.0,9.0,34,0.00,,---,0.00,VWS V14.01,2012-09-23 01:08:00,
2012-09-22 19:13:00,63.9,35.0,30.02,South,181,0.0,0.0,34,0.00,,---,0.00,VWS V14.01,2012-09-23 01:13:00,
2012-09-22 19:18:00,63.5,34.7,30.02,South,181,0.0,1.0,34,0.00,,---,0.00,VWS V14.01,2012-09-23 01:18:00,
2012-09-22 19:24:00,63.1,35.0,30.02,SSW,192,4.0,6.0,35,0.00,,---,0.00,VWS V14.01,2012-09-23 01:24:00,
2012-09-22 19:29:00,62.7,34.7,30.03,SSW,194,0.0,0.0,35,0.00,,---,0.00,VWS V14.01,2012-09-23 01:29:00,
2012-09-22 19:34:00,62.4,35.1,30.05,SSW,194,0.0,1.0,36,0.00,,---,0.00,VWS V14.01,2012-09-23 01:34:00,
2012-09-22 19:39:00,62.0,34.8,30.05,South,190,0.0,0.0,36,0.00,,---,0.00,VWS V14.01,2012-09-23 01:39:00,
2012-09-22 19:44:00,61.6,34.4,30.05,SSW,195,2.0,2.0,36,0.00,,---,0.00,VWS V14.01,2012-09-23 01:44:00,
2012-09-22 19:49:00,61.7,34.5,30.05,SSW,195,0.0,0.0,36,0.00,,---,0.00,VWS V14.01,2012-09-23 01:49:00,
2012-09-22 19:54:00,61.7,34.5,30.05,SSW,194,2.0,2.0,36,0.00,,---,0.00,VWS V14.01,2012-09-23 01:54:00,
2012-09-22 19:59:00,61.6,34.4,30.06,SSW,194,0.0,0.0,36,0.00,,---,0.00,VWS V14.01,2012-09-23 01:59:00,
2012-09-22 20:04:00,61.1,34.0,30.06,SSW,194,0.0,1.0,36,0.00,,---,0.00,VWS V14.01,2012-09-23 02:04:00,
2012-09-22 20:09:00,60.5,34.1,29.98,SSW,194,0.0,0.0,37,0.00,,---,0.00,VWS V14.01,2012-09-23 02:09:00,
2012-09-22 20:14:00,59.9,34.2,29.99,SSW,194,0.0,0.0,38,0.00,,---,0.00,VWS V14.01,2012-09-23 02:14:00,
2012-09-22 20:19:00,59.3,33.7,30.00,SE,138,1.0,1.0,38,0.00,,---,0.00,VWS V14.01,2012-09-23 02:19:00,
2012-09-22 20:24:00,59.0,33.5,30.00,SE,138,0.0,0.0,38,0.00,,---,0.00,VWS V14.01,2012-09-23 02:24:00,
2012-09-22 20:29:00,58.8,33.9,30.01,SE,137,0.0,0.0,39,0.00,,---,0.00,VWS V14.01,2012-09-23 02:29:00,
2012-09-22 20:34:00,58.6,33.7,30.01,SE,138,0.0,0.0,39,0.00,,---,0.00,VWS V14.01,2012-09-23 02:34:00,
2012-09-22 20:39:00,58.5,33.7,30.01,SE,138,0.0,0.0,39,0.00,,---,0.00,VWS V14.01,2012-09-23 02:39:00,
2012-09-22 20:44:00,58.4,33.6,30.01,SE,138,0.0,2.0,39,0.00,,---,0.00,VWS V14.01,2012-09-23 02:44:00,